Location: Unspecified
(0.0000°N, 0.0000°E)
Time: 01:29:35
(UTC+00:00)

Explorer 11/Cluster Stage 4 - Pass Details

Date: 24 November 2019
Orbit: 467 x 1259 km, 28.8° (Epoch: 11 December)

Event Time Altitude Azimuth Distance (km) Brightness Sun altitude
Rises 11:39:37 0° 215° (SW) 2,955 9.8 69.4°
Reaches altitude 10° 11:42:57 10° 194° (SSW) 1,894 9.0 69.4°
Maximum altitude 11:45:35 16° 156° (SSE) 1,464 8.5 69.5°
Drops below altitude 10° 11:48:00 10° 117° (ESE) 1,713 8.6 69.5°
Sets 11:50:47 0° 93° (E) 2,525 9.2 69.4°
